Find Kineis-4D

NORAD ID: 63302 Int'l Des: 2025-056 Owner: KINEIS Country: F operational
LEOCIRCULARRETROGRADESSO

当前视图

正在加载3D地球...

About Kineis-4D

Kineis-4D (NORAD 63302) is a satellite launched Mar 18, 2025 by KINEIS of F. It operates in LEO, CIRCULAR, RETROGRADE, SSO orbit with a mass of 28.00 kg.

即将过境

Passes for default location (London). Set your location on the main map for personalized predictions.

高度历史

Loading altitude history...

两行轨道根数

1 63302U 25056C 26194.56615392 .00000793 00000-0 13274-3 0 9990
2 63302 97.9041 317.9556 0001383 223.9828 136.1270 14.72424365 71018
Epoch: Jul 13, 2026 • Age: 12 hours

当前状态

高度 658.3 km
远地点 / 近地点 N/A
速度 7.53 km/s
星下点 30.90°N, 4.58°E
发射日期 Mar 18, 2025
运行时间 1.3 years
类型 other

技术详情

分类 Payload
质量 28.00 kg
干质量 28.00 kg
总质量 28.00 kg
长度 0.40 m
直径 0.20 m
跨度 1.60 m
形状 Box+ 2 pan + ant
制造商 KINEIS
平台类型 Cubesat 16U
阶段状态 In Orbit
所有者/国家 KINEIS/F

Most Searched